Overview Statistics Trail Chart Weather Telemetry Raw packets
 

This is the latest recevied weather packets stored in our database for station/object KI5RAB. If no packets are shown the sender has not sent any weather packets the latest 10 day(s).

<< 57 58 59 60 61 62 63 >>
Time Temp. Humidity Pressure Rain* Wind** Luminosity Snow
1788277256 31.67° C 62% 1020.1 hPa 0 mm - 490 W/m² -
1788276952 31.67° C 62% 1020.3 hPa 0 mm - 477 W/m² -
1788276645 31.11° C 65% 1020.3 hPa 0 mm - 461 W/m² -
1788276340 31.11° C 65% 1020.1 hPa 0 mm - 448 W/m² -
1788276039 30.56° C 66% 1020.3 hPa 0 mm - 434 W/m² -
1788275735 31.11° C 65% 1020.4 hPa 0 mm - 418 W/m² -
1788275435 30.56° C 68% 1020.2 hPa 0 mm - 403 W/m² -
1788275133 30° C 69% 1020.2 hPa 0 mm - 391 W/m² -
1788274831 31.11° C 69% 1020.3 hPa 0 mm - 374 W/m² -
1788274525 30.56° C 69% 1020.3 hPa 0 mm - 356 W/m² -
1788274234 30° C 70% 1020.4 hPa 0 mm - 343 W/m² -
1788273920 29.44° C 72% 1020.4 hPa 0 mm - 329 W/m² -
1788273615 30° C 71% 1020.3 hPa 0 mm - 313 W/m² -
1788273326 30° C 72% 1020.2 hPa 0 mm - 297 W/m² -
1788273007 29.44° C 74% 1020.3 hPa 0 mm - 280 W/m² -
1788272701 29.44° C 74% 1020.3 hPa 0 mm - 267 W/m² -
1788272397 29.44° C 75% 1020.2 hPa 0 mm - 248 W/m² -
1788272096 28.89° C 77% 1020.2 hPa 0 mm - 233 W/m² -
1788271791 28.33° C 77% 1020.3 hPa 0 mm - 218 W/m² -
1788271483 28.33° C 77% 1020.2 hPa 0 mm - 202 W/m² -
1788271178 27.78° C 80% 1020.1 hPa 0 mm - 187 W/m² -
1788270873 27.78° C 81% 1020.3 hPa 0 mm - 173 W/m² -
1788270569 27.78° C 82% 1020.3 hPa 0 mm - 159 W/m² -
1788270265 27.78° C 81% 1020.1 hPa 0 mm - 145 W/m² -
1788269964 27.78° C 81% 1020.3 hPa 0 mm - 132 W/m² -

* Rain latest hour (hover to see other rain measurements)
** Current wind speed in m/s (hover to see current wind gust speed)